{"data":{"norad_id":66138,"intl_designator":"2025-237AA","name":"STARLINK-35623","alt_names":[],"object_type":"PAYLOAD","status":"ACTIVE","operator":null,"country":"US","launch_date":"2025-10-22","launch_site_code":"AFWTR","launch_vehicle":null,"mission":null,"orbit_class":"UNKNOWN","rcs_meters":null,"size_class":null,"mass_kg":null,"dimensions":null,"purposes":["comms"],"wikipedia_slug":null,"has_3d_model":false,"image_url":null,"decayed_at":null,"tle_current":{"epoch":"2026-05-25T00:31:03.051840Z","epoch_age_seconds":76751,"freshness":"FRESH","line1":"1 66138U 25237AA  26145.02156310  .00011381  00000+0  39566-3 0  9994","line2":"2 66138  53.1579  45.3164 0000792  69.9537 290.1549 15.30210053 34294","mean_motion":15.30210053,"eccentricity":7.92e-5,"inclination_deg":53.1579,"raan_deg":45.3164,"arg_perigee_deg":69.9537,"mean_anomaly_deg":290.1549,"bstar":0.00039566,"rev_number":3429,"period_min":94.104727463844,"perigee_km":474.64227003111,"apogee_km":475.72783624433,"semimajor_km":6853.3220531377,"source":"CELESTRAK","updated_at":"2026-05-25T13:38:21.067194Z"}}}